User: anonymous   Login
Location: Mentone
(34.5413°N, 85.5351°W)
Time: 12:29:57
(UTC-05:00)
Language:

Centaur AC-72 - Orbit

View from above orbital plane
View from above orbital plane
View from above satellite
View from above satellite

Ground track
Ground track

The orbit data is extracted from the following two-line orbital elements,

1 21907U 92013B   14296.26054788 -.00000069  00000-0  00000+0 0  9485
2 21907 019.0703 219.1806 6945063 307.7574 127.9514 02.25606872186433
Epoch (UTC): 23 October 2014 06:15:11
Eccentricity: 0.6945063
inclination: 19.0703°
perigee height: 1124 km
apogee height: 35233 km
right ascension of ascending node: 219.1806°
argument of perigee: 307.7574°
revolutions per day: 2.25606872
mean anomaly at epoch: 127.9514°
orbit number at epoch: 18643

The dashed part of the orbit path shows where the satellite is in the earth's shadow,  

DLR